User: anonymous
Location: Iola
(37.9240°N, 95.4000°W)
Time: 07:01:42
(UTC-05:00)
Language:

Meteor 2-10 Rocket - Orbit

View from above orbital plane
View from above orbital plane
View from above satellite
View from above satellite

Ground track
Ground track

The orbit data is extracted from the following two-line orbital elements,

1 14453U 83109B   14110.16665953  .00000199  00000-0  75492-4 0  1224
2 14453 081.1679 187.1098 0105886 161.3713 260.2180 14.24483638583227
Epoch (UTC): 20 April 2014 03:59:59
Eccentricity: 0.0105886
inclination: 81.1679°
perigee height: 734 km
apogee height: 886 km
right ascension of ascending node: 187.1098°
argument of perigee: 161.3713°
revolutions per day: 14.24483638
mean anomaly at epoch: 260.2180°
orbit number at epoch: 58322

The dashed part of the orbit path shows where the satellite is in the earth's shadow,  

DLR